Weather History for KFIG - June, 2013

Change the Weather History Date:

Saturday, June 15, 2013

  Actual Average (KDUJ) Record (KDUJ)
Temperature  
Mean Temperature 63 °F 65 °F  
Max Temperature 75 °F 75 °F 87 °F (1988)
Min Temperature 51 °F 54 °F 41 °F (1978)
Degree Days  
Heating Degree Days 2 3  
Month to date heating degree days 60  
Since 1 June heating degree days 60  
Since 1 July heating degree days 6862  
Cooling Degree Days 0 2  
Month to date cooling degree days 23  
Year to date cooling degree days 46  
Since 1 June cooling degree days 23  
Growing Degree Days 13 (Base 50)    
Moisture  
Dew Point 50 °F    
Average Humidity 75    
Maximum Humidity 100    
Minimum Humidity 28    
Precipitation  
Precipitation 0.00 in 0.16 in 1.43 in (1972)
Month to date precipitation 2.40  
Sea Level Pressure  
Sea Level Pressure 30.07 in    
Wind  
Wind Speed 2 mph (WSW)    
Max Wind Speed 12 mph    
Max Gust Speed 17 mph    
Visibility 7 miles    
Events Fog    
T = Trace of Precipitation, MM = Missing Value Source: NWS Daily Summary

Daily Weather History Graph

Daily Weather History Graph

Search for Another Location

Airport or City:

Trip Planner

Search our weather history database for the weather conditions in past years. The results will help you decide how hot, cold, wet, or windy it might be!

Date:

Astronomy

Jun. 15, 2013 Rise Set
Actual Time 5:40 AM EDT 8:47 PM EDT
Civil Twilight 5:07 AM EDT 9:21 PM EDT
Nautical Twilight 4:24 AM EDT 10:04 PM EDT
Astronomical Twilight 3:33 AM EDT 10:55 PM EDT
Moon 12:16 PM EDT (6/15) 12:19 AM EDT (6/15)
Length of Visible Light 16h 14m
Length of Day
15h 07m
Waxing Crescent, 39% of the Moon is Illuminated
Jun 15
Waxing Crescent
Jun 16
First Quarter
Jun 23
Full
Jun 30
Last Quarter
Jul 8
New

Hourly Weather History & Observations

Time (EDT) Temp. Dew Point Humidity Pressure Visibility Wind Dir Wind Speed Gust Speed Precip Events Conditions
12:54 AM 55.0 °F 51.1 °F 86% 30.04 in 10.0 mi Calm Calm - N/A   Clear
1:54 AM 55.0 °F 51.1 °F 86% 30.04 in 10.0 mi Calm Calm - N/A   Clear
2:54 AM 55.9 °F 52.0 °F 87% 30.03 in 10.0 mi Calm Calm - N/A   Clear
3:54 AM 52.0 °F 50.0 °F 93% 30.01 in 9.0 mi Calm Calm - N/A   Clear
4:54 AM 51.1 °F 50.0 °F 96% 30.04 in 7.0 mi Calm Calm - N/A   Clear
5:32 AM 51.8 °F 51.8 °F 100% 30.07 in 3.0 mi Calm Calm - N/A   Scattered Clouds
5:36 AM 51.8 °F 51.8 °F 100% 30.07 in 1.8 mi Calm Calm - N/A   Scattered Clouds
5:42 AM 51.8 °F 50.0 °F 94% 30.07 in 0.8 mi Calm Calm - N/A   Mist
5:50 AM 51.8 °F 50.0 °F 94% 30.07 in 0.2 mi Calm Calm - N/A Fog Fog
5:54 AM 51.1 °F 50.0 °F 96% 30.06 in 0.2 mi Calm Calm - N/A Fog Fog
6:04 AM 51.8 °F 51.8 °F 100% 30.08 in 0.5 mi Calm Calm - N/A Fog Fog
6:09 AM 51.8 °F 51.8 °F 100% 30.08 in 1.0 mi SSW 3.5 mph - N/A   Overcast
6:21 AM 51.8 °F 51.8 °F 100% 30.08 in 3.0 mi SSW 3.5 mph - N/A   Overcast
6:31 AM 51.8 °F 51.8 °F 100% 30.08 in 2.5 mi SSW 4.6 mph - N/A   Overcast
6:40 AM 53.6 °F 51.8 °F 94% 30.09 in 1.0 mi SSW 3.5 mph - N/A   Overcast
6:54 AM 53.1 °F 52.0 °F 96% 30.07 in 1.5 mi South 4.6 mph - N/A   Overcast
7:04 AM 53.6 °F 53.6 °F 100% 30.09 in 3.0 mi South 3.5 mph - N/A   Overcast
7:26 AM 53.6 °F 53.6 °F 100% 30.10 in 5.0 mi SSW 4.6 mph - N/A   Overcast
7:54 AM 55.0 °F 53.1 °F 93% 30.09 in 8.0 mi SW 4.6 mph - N/A   Mostly Cloudy
8:54 AM 60.1 °F 55.0 °F 83% 30.11 in 10.0 mi Variable 3.5 mph - N/A   Mostly Cloudy
9:08 AM 59.0 °F 53.6 °F 82% 30.12 in 10.0 mi South 4.6 mph - N/A   Scattered Clouds
9:54 AM 64.0 °F 55.0 °F 73% 30.10 in 10.0 mi Variable 4.6 mph - N/A   Scattered Clouds
10:02 AM 64.4 °F 55.4 °F 73% 30.12 in 10.0 mi WSW 6.9 mph - N/A   Mostly Cloudy
10:28 AM 66.2 °F 53.6 °F 64% 30.11 in 10.0 mi WNW 9.2 mph - N/A   Scattered Clouds
10:54 AM 68.0 °F 54.0 °F 61% 30.10 in 10.0 mi West 8.1 mph - N/A   Clear
11:54 AM 70.0 °F 48.9 °F 47% 30.09 in 10.0 mi Variable 4.6 mph - N/A   Partly Cloudy
12:54 PM 72.0 °F 46.9 °F 41% 30.08 in 10.0 mi WNW 11.5 mph 17.3 mph N/A   Clear
1:54 PM 73.9 °F 44.1 °F 34% 30.06 in 10.0 mi NW 8.1 mph 16.1 mph N/A   Clear
2:54 PM 75.0 °F 39.9 °F 28% 30.04 in 10.0 mi NNW 8.1 mph - N/A   Clear
3:54 PM 73.9 °F 44.1 °F 34% 30.04 in 10.0 mi WNW 8.1 mph - N/A   Clear
4:54 PM 73.9 °F 43.0 °F 33% 30.04 in 10.0 mi West 8.1 mph - N/A   Clear
5:54 PM 73.0 °F 45.0 °F 37% 30.03 in 10.0 mi West 9.2 mph - N/A   Clear
6:54 PM 72.0 °F 46.0 °F 40% 30.04 in 10.0 mi WSW 5.8 mph - N/A   Clear
7:54 PM 69.1 °F 45.0 °F 42% 30.05 in 10.0 mi WSW 6.9 mph - N/A   Clear
8:54 PM 66.0 °F 44.1 °F 45% 30.04 in 10.0 mi West 5.8 mph - N/A   Clear
9:54 PM 61.0 °F 48.0 °F 62% 30.04 in 10.0 mi Calm Calm - N/A   Clear
10:54 PM 59.0 °F 48.0 °F 67% 30.04 in 10.0 mi Calm Calm - N/A   Clear
11:54 PM 55.9 °F 48.9 °F 77% 30.05 in 10.0 mi Calm Calm - N/A   Clear